N604PS KRDU-KATL

Flight info

Callsign N604PS
Flight time 1h 2m
Altitude 40000
Route SHPRD4 SHPRD LEAVI OZZZI2
Aircraft CL60/M-SBDE1E2E3FGHIJ1J4J5J7M3RWXYZ/LB1V1D1

Departure

Time 2026-05-04 00:47
Airport Raleigh-Durham International Airport (KRDU)

Arrival

Time 2026-05-04 01:49
Airport Hartsfield Jackson Atlanta International Airport (KATL)
Time Latitude Longitude Altitude Speed Heading
2026-05-04 00:12 35.87929 -78.78417 422 ft 0 kts 225°
2026-05-04 00:40 35.87923 -78.78423 422 ft 2 kts 211°
2026-05-04 00:40 35.87898 -78.78421 423 ft 4 kts 175°
2026-05-04 00:41 35.87865 -78.78414 424 ft 5 kts 147°
2026-05-04 00:41 35.87833 -78.78373 424 ft 6 kts 115°
2026-05-04 00:41 35.87844 -78.78325 425 ft 7 kts 47°
2026-05-04 00:41 35.87889 -78.78270 424 ft 10 kts 45°
2026-05-04 00:42 35.87951 -78.78194 423 ft 13 kts 45°
2026-05-04 00:42 35.88012 -78.78118 421 ft 2 kts 44°
2026-05-04 00:42 35.88021 -78.78095 421 ft 3 kts 95°
2026-05-04 00:42 35.88011 -78.78068 421 ft 7 kts 136°
2026-05-04 00:43 35.87983 -78.78040 422 ft 3 kts 134°
2026-05-04 00:43 35.87976 -78.78029 422 ft 0 kts 130°
2026-05-04 00:45 35.87970 -78.78021 422 ft 5 kts 131°
2026-05-04 00:45 35.87940 -78.77984 422 ft 6 kts 136°
2026-05-04 00:46 35.87904 -78.77967 422 ft 6 kts 189°
2026-05-04 00:46 35.87867 -78.77999 423 ft 7 kts 226°
2026-05-04 00:46 35.87852 -78.78019 424 ft 21 kts 225°
2026-05-04 00:46 35.87470 -78.78490 427 ft 132 kts 225°
2026-05-04 00:47 35.86712 -78.79421 1089 ft 167 kts 225°
2026-05-04 00:47 35.85888 -78.80354 1824 ft 172 kts 224°
2026-05-04 00:47 35.84954 -78.81507 2137 ft 196 kts 227°
2026-05-04 00:47 35.84032 -78.82761 2655 ft 199 kts 230°
2026-05-04 00:48 35.83164 -78.84090 3211 ft 203 kts 234°
2026-05-04 00:48 35.82344 -78.85497 3741 ft 204 kts 240°
2026-05-04 00:48 35.81665 -78.87029 4186 ft 204 kts 249°
2026-05-04 00:48 35.81182 -78.88698 4321 ft 213 kts 259°
2026-05-04 00:49 35.80985 -78.90482 4242 ft 200 kts 266°
2026-05-04 00:49 35.80848 -78.92141 4595 ft 198 kts 266°
2026-05-04 00:49 35.80703 -78.93849 5051 ft 201 kts 266°
2026-05-04 00:49 35.80555 -78.95562 5601 ft 203 kts 267°
2026-05-04 00:50 35.80404 -78.97307 6173 ft 212 kts 267°
2026-05-04 00:50 35.80243 -78.99159 6727 ft 223 kts 267°
2026-05-04 00:50 35.80074 -79.01076 7286 ft 227 kts 268°
2026-05-04 00:50 35.79903 -79.02998 7823 ft 227 kts 268°
2026-05-04 00:51 35.79728 -79.04930 8383 ft 226 kts 268°
2026-05-04 00:51 35.79554 -79.06845 8950 ft 227 kts 268°
2026-05-04 00:51 35.79379 -79.08771 9482 ft 228 kts 268°
2026-05-04 00:51 35.79202 -79.10696 10023 ft 227 kts 268°
2026-05-04 00:52 35.79024 -79.12630 10595 ft 232 kts 268°
2026-05-04 00:52 35.78837 -79.14713 11142 ft 259 kts 268°
2026-05-04 00:52 35.78631 -79.17022 11711 ft 285 kts 267°
2026-05-04 00:52 35.78403 -79.19544 12252 ft 308 kts 267°
2026-05-04 00:53 35.78158 -79.22251 12810 ft 327 kts 267°
2026-05-04 00:53 35.77967 -79.25048 13715 ft 329 kts 270°
2026-05-04 00:53 35.78011 -79.27805 14891 ft 320 kts 277°
2026-05-04 00:53 35.78145 -79.30491 15953 ft 320 kts 269°
2026-05-04 00:54 35.77838 -79.33259 16522 ft 333 kts 263°
2026-05-04 00:54 35.77464 -79.36100 17093 ft 337 kts 264°
2026-05-04 00:54 35.77108 -79.38949 17646 ft 337 kts 264°
2026-05-04 00:54 35.76764 -79.41796 18222 ft 338 kts 264°
2026-05-04 00:55 35.76426 -79.44655 18752 ft 339 kts 264°
2026-05-04 00:55 35.76095 -79.47533 19313 ft 340 kts 264°
2026-05-04 00:55 35.75769 -79.50415 19873 ft 342 kts 265°
2026-05-04 00:55 35.75448 -79.53309 20425 ft 344 kts 265°
2026-05-04 00:56 35.75147 -79.56058 20955 ft 345 kts 265°
2026-05-04 00:56 35.74880 -79.58532 21419 ft 346 kts 265°
2026-05-04 00:56 35.74565 -79.61472 21983 ft 347 kts 265°
2026-05-04 00:56 35.74253 -79.64423 22529 ft 348 kts 265°
2026-05-04 00:57 35.73938 -79.67411 22966 ft 353 kts 264°
2026-05-04 00:57 35.73626 -79.70436 23098 ft 355 kts 265°
2026-05-04 00:57 35.73422 -79.73428 23268 ft 349 kts 268°
2026-05-04 00:57 35.73491 -79.76395 23256 ft 346 kts 274°
2026-05-04 00:58 35.73346 -79.79322 23134 ft 340 kts 262°
2026-05-04 00:58 35.72957 -79.82170 23147 ft 334 kts 263°
2026-05-04 00:58 35.72593 -79.84958 23552 ft 328 kts 263°
2026-05-04 00:58 35.72240 -79.87736 24061 ft 331 kts 263°
2026-05-04 00:59 35.71892 -79.90558 24573 ft 337 kts 263°
2026-05-04 00:59 35.71548 -79.93430 25082 ft 342 kts 263°
2026-05-04 00:59 35.71207 -79.96333 25597 ft 346 kts 263°
2026-05-04 00:59 35.70869 -79.99270 26102 ft 350 kts 264°
2026-05-04 01:00 35.70528 -80.02275 26598 ft 354 kts 264°
2026-05-04 01:00 35.70192 -80.05280 27106 ft 356 kts 264°
2026-05-04 01:00 35.69856 -80.08314 27616 ft 358 kts 264°
2026-05-04 01:00 35.69520 -80.11374 28121 ft 360 kts 264°
2026-05-04 01:01 35.69186 -80.14434 28625 ft 361 kts 264°
2026-05-04 01:01 35.68852 -80.17511 29134 ft 361 kts 264°
2026-05-04 01:01 35.68521 -80.20571 29634 ft 362 kts 264°
2026-05-04 01:01 35.68191 -80.23624 30139 ft 361 kts 264°
2026-05-04 01:02 35.67862 -80.26684 30640 ft 360 kts 264°
2026-05-04 01:02 35.67535 -80.29729 31149 ft 358 kts 264°
2026-05-04 01:02 35.67210 -80.32752 31600 ft 358 kts 264°
2026-05-04 01:02 35.66886 -80.35777 32030 ft 357 kts 264°
2026-05-04 01:03 35.66562 -80.38797 32455 ft 357 kts 264°
2026-05-04 01:03 35.66238 -80.41817 32890 ft 355 kts 264°
2026-05-04 01:03 35.65917 -80.44815 33312 ft 354 kts 264°
2026-05-04 01:03 35.65477 -80.47775 33758 ft 352 kts 257°
2026-05-04 01:04 35.64639 -80.50605 34188 ft 351 kts 251°
2026-05-04 01:04 35.63696 -80.53366 34575 ft 348 kts 250°
2026-05-04 01:04 35.62768 -80.56098 35000 ft 343 kts 250°
2026-05-04 01:04 35.61858 -80.58778 35425 ft 338 kts 250°
2026-05-04 01:05 35.60958 -80.61423 35853 ft 332 kts 250°
2026-05-04 01:05 35.60076 -80.64016 36278 ft 326 kts 250°
2026-05-04 01:05 35.59199 -80.66591 36762 ft 322 kts 250°
2026-05-04 01:05 35.58329 -80.69147 37184 ft 319 kts 250°
2026-05-04 01:06 35.57477 -80.71646 37577 ft 315 kts 249°
2026-05-04 01:06 35.56640 -80.74101 37992 ft 310 kts 249°
2026-05-04 01:06 35.55813 -80.76521 38416 ft 303 kts 250°
2026-05-04 01:06 35.55007 -80.78882 38836 ft 297 kts 249°
2026-05-04 01:07 35.54212 -80.81208 39257 ft 290 kts 249°
2026-05-04 01:07 35.53439 -80.83469 39592 ft 284 kts 250°
2026-05-04 01:07 35.52667 -80.85729 39670 ft 287 kts 249°
2026-05-04 01:07 35.51893 -80.87994 39684 ft 291 kts 249°
2026-05-04 01:08 35.51099 -80.90317 39692 ft 295 kts 249°
2026-05-04 01:08 35.50297 -80.92661 39698 ft 299 kts 250°
2026-05-04 01:08 35.49487 -80.95029 39699 ft 304 kts 249°
2026-05-04 01:09 35.47829 -80.99873 39686 ft 313 kts 249°
2026-05-04 01:09 35.46125 -81.04843 39699 ft 320 kts 249°
2026-05-04 01:10 35.44381 -81.09926 39693 ft 328 kts 249°
2026-05-04 01:10 35.42593 -81.15125 39690 ft 334 kts 249°
2026-05-04 01:11 35.40774 -81.20407 39686 ft 337 kts 249°
2026-05-04 01:11 35.38944 -81.25709 39679 ft 338 kts 249°
2026-05-04 01:12 35.37110 -81.31017 39675 ft 338 kts 249°
2026-05-04 01:12 35.35272 -81.36322 39683 ft 338 kts 249°
2026-05-04 01:13 35.33436 -81.41616 39680 ft 338 kts 249°
2026-05-04 01:13 35.31598 -81.46903 39686 ft 338 kts 249°
2026-05-04 01:14 35.29752 -81.52205 39689 ft 338 kts 249°
2026-05-04 01:14 35.27902 -81.57511 39691 ft 339 kts 249°
2026-05-04 01:15 35.26048 -81.62818 39687 ft 339 kts 249°
2026-05-04 01:15 35.24181 -81.68151 39688 ft 339 kts 249°
2026-05-04 01:16 35.22321 -81.73457 39682 ft 340 kts 248°
2026-05-04 01:16 35.20455 -81.78770 39677 ft 340 kts 248°
2026-05-04 01:17 35.18571 -81.84126 39683 ft 346 kts 248°
2026-05-04 01:17 35.16653 -81.89572 39681 ft 352 kts 248°
2026-05-04 01:18 35.14693 -81.95126 39680 ft 358 kts 248°
2026-05-04 01:18 35.12704 -82.00755 39677 ft 364 kts 248°
2026-05-04 01:19 35.10683 -82.06463 39680 ft 369 kts 248°
2026-05-04 01:19 35.08631 -82.12245 39679 ft 373 kts 248°
2026-05-04 01:20 35.06557 -82.18080 39684 ft 377 kts 248°
2026-05-04 01:20 35.04453 -82.23990 39688 ft 381 kts 249°
2026-05-04 01:21 35.02322 -82.29961 39684 ft 384 kts 248°
2026-05-04 01:21 34.99777 -82.35714 39688 ft 387 kts 243°
2026-05-04 01:22 34.97032 -82.41398 39684 ft 390 kts 243°
2026-05-04 01:22 34.94269 -82.47118 39682 ft 391 kts 242°
2026-05-04 01:23 34.91498 -82.52850 39684 ft 393 kts 242°
2026-05-04 01:23 34.88683 -82.58664 39692 ft 394 kts 243°
2026-05-04 01:24 34.85717 -82.64338 39688 ft 396 kts 238°
2026-05-04 01:24 34.82488 -82.69872 39686 ft 398 kts 238°
2026-05-04 01:25 34.79258 -82.75413 39684 ft 400 kts 238°
2026-05-04 01:25 34.76082 -82.80981 39682 ft 401 kts 238°
2026-05-04 01:26 34.72920 -82.86583 39683 ft 402 kts 239°
2026-05-04 01:26 34.69745 -82.92198 39676 ft 403 kts 239°
2026-05-04 01:27 34.66566 -82.97815 39683 ft 404 kts 239°
2026-05-04 01:27 34.63377 -83.03441 39682 ft 405 kts 239°
2026-05-04 01:28 34.60180 -83.09071 39693 ft 405 kts 239°
2026-05-04 01:28 34.57016 -83.14632 39696 ft 393 kts 239°
2026-05-04 01:29 34.53946 -83.20023 38992 ft 391 kts 239°
2026-05-04 01:29 34.52404 -83.22727 38311 ft 390 kts 239°
2026-05-04 01:29 34.50863 -83.25431 37641 ft 389 kts 239°
2026-05-04 01:29 34.49329 -83.28118 36935 ft 387 kts 239°
2026-05-04 01:30 34.47802 -83.30779 36289 ft 384 kts 239°
2026-05-04 01:30 34.46262 -83.33432 35692 ft 385 kts 239°
2026-05-04 01:30 34.44725 -83.36081 35013 ft 387 kts 239°
2026-05-04 01:30 34.43178 -83.38744 34339 ft 389 kts 239°
2026-05-04 01:31 34.41622 -83.41420 33605 ft 389 kts 239°
2026-05-04 01:31 34.40071 -83.44084 32941 ft 387 kts 239°
2026-05-04 01:31 34.38529 -83.46731 32269 ft 386 kts 239°
2026-05-04 01:31 34.36985 -83.49378 31590 ft 384 kts 239°
2026-05-04 01:32 34.35447 -83.52015 30923 ft 383 kts 239°
2026-05-04 01:32 34.33911 -83.54646 30245 ft 382 kts 239°
2026-05-04 01:32 34.32387 -83.57255 29568 ft 380 kts 239°
2026-05-04 01:32 34.30863 -83.59862 28895 ft 378 kts 239°
2026-05-04 01:33 34.29322 -83.62438 28219 ft 378 kts 235°
2026-05-04 01:33 34.27446 -83.64655 27565 ft 379 kts 226°
2026-05-04 01:33 34.25574 -83.66634 26930 ft 378 kts 226°
2026-05-04 01:33 34.23601 -83.68733 26257 ft 376 kts 226°
2026-05-04 01:34 34.21645 -83.70816 25584 ft 375 kts 226°
2026-05-04 01:34 34.19699 -83.72886 24909 ft 373 kts 225°
2026-05-04 01:34 34.17768 -83.74939 24234 ft 370 kts 225°
2026-05-04 01:34 34.15837 -83.76992 23560 ft 368 kts 225°
2026-05-04 01:35 34.13923 -83.79025 22889 ft 365 kts 225°
2026-05-04 01:35 34.12021 -83.81043 22213 ft 363 kts 225°
2026-05-04 01:35 34.10136 -83.83043 21540 ft 360 kts 225°
2026-05-04 01:35 34.08270 -83.85039 20864 ft 357 kts 226°
2026-05-04 01:36 34.06426 -83.87021 20189 ft 355 kts 226°
2026-05-04 01:36 34.04590 -83.88992 19484 ft 350 kts 225°
2026-05-04 01:36 34.02792 -83.90920 18800 ft 343 kts 225°
2026-05-04 01:36 34.01024 -83.92815 18124 ft 336 kts 226°
2026-05-04 01:37 33.99270 -83.94666 17451 ft 332 kts 222°
2026-05-04 01:37 33.97293 -83.96081 16800 ft 332 kts 205°
2026-05-04 01:37 33.95053 -83.96705 16156 ft 333 kts 186°
2026-05-04 01:37 33.92745 -83.96674 15492 ft 331 kts 181°
2026-05-04 01:38 33.90455 -83.96586 14816 ft 329 kts 181°
2026-05-04 01:38 33.88169 -83.96503 14139 ft 327 kts 181°
2026-05-04 01:38 33.85888 -83.96419 13463 ft 325 kts 181°
2026-05-04 01:38 33.83636 -83.96334 12787 ft 323 kts 181°
2026-05-04 01:39 33.81395 -83.96249 12116 ft 321 kts 181°
2026-05-04 01:39 33.79172 -83.96163 11453 ft 319 kts 180°
2026-05-04 01:39 33.76978 -83.96077 10927 ft 312 kts 180°
2026-05-04 01:39 33.74866 -83.96267 10526 ft 297 kts 199°
2026-05-04 01:40 33.72983 -83.97127 10210 ft 283 kts 207°
2026-05-04 01:40 33.71198 -83.98037 9912 ft 273 kts 206°
2026-05-04 01:40 33.69468 -83.98908 9586 ft 268 kts 206°
2026-05-04 01:40 33.67752 -83.99774 9134 ft 267 kts 206°
2026-05-04 01:41 33.66205 -84.00939 8651 ft 259 kts 228°
2026-05-04 01:41 33.65256 -84.02663 8165 ft 243 kts 251°
2026-05-04 01:41 33.64927 -84.04578 7683 ft 230 kts 270°
2026-05-04 01:41 33.64928 -84.06449 7199 ft 222 kts 273°
2026-05-04 01:42 33.64946 -84.08272 6701 ft 217 kts 273°
2026-05-04 01:42 33.64959 -84.10051 6179 ft 210 kts 273°
2026-05-04 01:42 33.64970 -84.11735 5639 ft 195 kts 272°
2026-05-04 01:42 33.64977 -84.13294 5138 ft 181 kts 273°
2026-05-04 01:43 33.64982 -84.14731 4792 ft 162 kts 273°
2026-05-04 01:43 33.64965 -84.16066 4597 ft 160 kts 272°
2026-05-04 01:43 33.64949 -84.17343 4358 ft 146 kts 272°
2026-05-04 01:43 33.64944 -84.18522 4051 ft 137 kts 273°
2026-05-04 01:44 33.64945 -84.19633 3983 ft 133 kts 273°
2026-05-04 01:44 33.64947 -84.20725 4016 ft 132 kts 273°
2026-05-04 01:44 33.64951 -84.21829 4007 ft 132 kts 273°
2026-05-04 01:44 33.64954 -84.22944 3901 ft 135 kts 273°
2026-05-04 01:45 33.64955 -84.24057 3723 ft 132 kts 273°
2026-05-04 01:45 33.64957 -84.25160 3555 ft 132 kts 273°
2026-05-04 01:45 33.64936 -84.27355 3213 ft 131 kts 269°
2026-05-04 01:46 33.64914 -84.28450 3042 ft 130 kts 269°
2026-05-04 01:46 33.64883 -84.29530 2838 ft 129 kts 272°
2026-05-04 01:46 33.64924 -84.30597 2586 ft 127 kts 275°
2026-05-04 01:46 33.64962 -84.31651 2339 ft 125 kts 274°
2026-05-04 01:47 33.64985 -84.32694 2148 ft 124 kts 272°
2026-05-04 01:47 33.64970 -84.33733 2039 ft 124 kts 270°
2026-05-04 01:47 33.64948 -84.34768 1947 ft 124 kts 271°
2026-05-04 01:47 33.64949 -84.35804 1840 ft 124 kts 273°
2026-05-04 01:48 33.64964 -84.36836 1697 ft 124 kts 272°
2026-05-04 01:48 33.64973 -84.37867 1504 ft 124 kts 271°
2026-05-04 01:48 33.64959 -84.38891 1310 ft 121 kts 270°
2026-05-04 01:48 33.64958 -84.39880 1151 ft 117 kts 274°
2026-05-04 01:49 33.64958 -84.40865 1073 ft 116 kts 273°
2026-05-04 01:49 33.64958 -84.41783 1011 ft 99 kts 271°
2026-05-04 01:49 33.64959 -84.42363 1015 ft 32 kts 260°
2026-05-04 01:49 33.64955 -84.42544 1016 ft 14 kts 268°
2026-05-04 01:50 33.64956 -84.42667 1017 ft 13 kts 270°
2026-05-04 01:50 33.64956 -84.42785 1017 ft 13 kts 274°
2026-05-04 01:50 33.64987 -84.42882 1019 ft 9 kts 312°
2026-05-04 01:50 33.65033 -84.42903 1023 ft 5 kts 15°
2026-05-04 01:51 33.65067 -84.42851 1024 ft 11 kts 80°
2026-05-04 01:51 33.65064 -84.42777 1024 ft 11 kts 95°
2026-05-04 01:51 33.65062 -84.42675 1024 ft 9 kts 90°
2026-05-04 01:51 33.65060 -84.42588 1024 ft 10 kts 92°
2026-05-04 01:52 33.65058 -84.42482 1024 ft 14 kts 90°
2026-05-04 01:52 33.65060 -84.42390 1024 ft 10 kts 89°
2026-05-04 01:52 33.65062 -84.42287 1024 ft 13 kts 88°
2026-05-04 01:52 33.65065 -84.42214 1024 ft 0 kts 79°
2026-05-04 01:53 33.65068 -84.42203 1024 ft 0 kts 70°
2026-05-04 01:53 33.65110 -84.42209 1024 ft 9 kts 336°
2026-05-04 01:53 33.65149 -84.42203 1024 ft 6 kts 43°
2026-05-04 01:53 33.65177 -84.42157 1024 ft 6 kts 45°
2026-05-04 01:54 33.65203 -84.42127 1024 ft 4 kts 44°
2026-05-04 01:54 33.65208 -84.42120 1024 ft 0 kts 44°